Location: Mohawk View
(42.7837°N, 73.7885°W)
Time: 12:10:33
(UTC+00:00)

BREEZE-M DEB (TANK) - Pass Details

Date: 17 June 2021
Orbit: 287 x 18721 km, 52.5° (Epoch: 26 July)

Event Time Altitude Azimuth Distance (km) Brightness Sun altitude
Rises 02:59:56 0° 304° (WNW) 3,010 7.7 -18.6°
Reaches altitude 10° 03:02:48 10° 299° (WNW) 1,477 5.8 -18.9°
Enters shadow 03:04:47 38° 274° (W) 496 2.8 -19.0°
